{"data":{"norad_id":49086,"intl_designator":"2021-075M","name":"ONEWEB-0297","alt_names":[],"object_type":"PAYLOAD","status":"ACTIVE","operator":null,"country":"UK","launch_date":"2021-08-21","launch_site_code":"TYMSC","launch_vehicle":null,"mission":null,"orbit_class":"UNKNOWN","rcs_meters":null,"size_class":null,"mass_kg":null,"dimensions":null,"purposes":["comms"],"wikipedia_slug":null,"has_3d_model":false,"image_url":null,"decayed_at":null,"tle_current":{"epoch":"2026-09-20T04:18:45.940032Z","epoch_age_seconds":49702,"freshness":"FRESH","line1":"1 49086U 21075M   26263.17969838  .00000439  00000+0  11841-2 0  9994","line2":"2 49086  87.8977 331.8125 0001854 102.6808 257.4528 13.12443036247644","mean_motion":13.12443036,"eccentricity":0.0001854,"inclination_deg":87.8977,"raan_deg":331.8125,"arg_perigee_deg":102.6808,"mean_anomaly_deg":257.4528,"bstar":0.0011841,"rev_number":24764,"period_min":109.71904764635,"perigee_km":1212.3156213469,"apogee_km":1215.1306830914,"semimajor_km":7591.8601522191,"source":"CELESTRAK","updated_at":"2026-09-20T09:00:44.633044Z"}}}